Location: Petrozavodsk
(61.7857°N, 34.3593°E)
Time: 05:51:11
(UTC+03:00)

Terra - Pass Details

Date: 29 October 2019
Orbit: 701 x 703 km, 98.2° (Epoch: 12 November)

Event Time Altitude Azimuth Distance (km) Brightness Sun altitude
Exits shadow 19:47:09 16° 32° (NNE) 1,794 3.7 -21.4°
Drops below altitude 10° 19:49:38 10° 0° (N) 2,185 4.5 -21.7°
Sets 19:52:38 0° 340° (NNW) 3,107 5.6 -22.0°
